风云二号G星 (FENGYUN 2G)

导读

FENGYUN 2G(风云二号G星)是中国于2014年12月31日发射的地球同步轨道静止气象卫星,属于我国自行研制的第一代风云二号气象卫星03批业务卫星,定点于赤道上空。它可获取可见光云图、红外云图与水汽图,收集气象、海洋、水文观测数据,播送云图,监测空间环境,为气象预报、灾害监测提供稳定服务,保障了第一代静止气象卫星向第二代的平稳过渡。

基本信息
目录编号:
40367
目录名称:
FENGYUN 2G
国际标识:
2014-090A
轨道中心:
EARTH
卫星名称:
风云二号G星
卫星全名:
风云二号G星 (FENGYUN 2G)
卫星状态:
在轨 (已飞行4272 天)
发射日期:
2014-12-31 UTC
国别 :
中国 (CN)
星等 :
--
轨道信息
数据来源 国际轨道数据 AOE轨道数据
星历时间 2026-09-10T20:46:04+0800
14小时前
查看轨道信息
2026-09-10T05:00:00+0800
1天前
查看轨道信息
半长轴 42163.831km 42163.663km
偏心率 0.0004071 0.0003979
轨道倾角 5.849° 5.847°
近地点辐角 185.928° 185.924°
升交点赤经 71.742° 71.750°
平近点角 23.129° 145.953°
近地点 35768.529km 35768.749km
远地点 35802.859km 35802.303km
周期 1436.051分钟 1436.042分钟
每日圈数 1.00275 1.002756
详细信息
平衡模式:
三轴稳定
覆盖范围:
亚洲
运营商:
夏威夷科学技术博物馆
运营商所在国:
美国
制造商(研发单位):
上海航天技术研究院
制造商所在国:
中国
使用方式:
暂无
卫星简介
风云气象卫星系列(FENGYUN Meteorological Satellite)是中国于1977年开始研制的气象卫星系列,目前发射了风云一号、风云二号、风云三号、风云四号等卫星系列。其中,风云二号系列、风云四号系列为风云静止卫星,风云一号系列、风云三号系列为风云极轨卫星。该卫星仍在工作。
2D轨道图
3D轨道图
轨道高度分析图
轨道倾角分析图
轨道综合分析图
查看轨道综合分析图
与全量物体交会距离演化趋势
与全量物体交会风险概率演化趋势